Date,TemperatureHighF,TemperatureAvgF,TemperatureLowF,DewpointHighF,DewpointAvgF,DewpointLowF,HumidityHigh,HumidityAvg,HumidityLow,PressureMaxIn,PressureMinIn,WindSpeedMaxMPH,WindSpeedAvgMPH,GustSpeedMaxMPH,PrecipitationSumIn
2014-1-1,50.7,35.5,24.3,27.8,24.0,20.9,88,65,39,30.48,30.17,5,1,12,0.00
2014-1-2,38.3,32.6,28.1,33.0,28.7,25.0,97,86,67,30.16,29.67,3,0,5,0.08
2014-1-3,33.4,23.7,15.2,31.9,9.5,4.0,97,56,36,30.56,29.70,11,4,24,0.00
2014-1-4,37.0,24.0,11.7,20.4,12.6,8.6,90,64,39,30.61,30.33,5,1,14,0.02
2014-1-5,37.6,33.7,31.9,37.1,29.8,19.4,98,87,59,30.34,29.76,2,0,5,0.67
2014-1-6,45.1,34.0,11.1,42.9,21.6,-9.4,99,64,35,30.18,29.60,9,4,18,0.02
2014-1-7,21.9,13.1,5.6,4.2,-6.1,-11.4,62,42,28,30.53,30.18,5,2,13,0.00
2014-1-8,35.3,22.8,10.5,18.4,7.6,-1.8,76,54,31,30.68,30.52,4,1,9,0.00
2014-1-9,43.6,31.8,25.9,23.8,18.5,13.6,74,58,42,30.71,30.54,2,1,8,0.00
2014-1-10,36.2,34.0,31.3,35.4,31.5,23.8,98,91,71,30.59,30.20,1,0,3,0.68
2014-1-11,52.8,43.5,35.6,50.3,42.2,35.1,100,96,59,30.19,29.53,4,1,12,0.58
2014-1-12,55.5,45.7,33.8,37.8,31.6,29.2,83,59,40,30.16,29.65,7,2,16,0.00
2014-1-13,57.8,43.8,29.7,42.1,34.3,27.4,92,71,48,30.15,29.95,6,2,15,0.01
2014-1-14,50.0,44.7,32.6,48.1,43.0,31.8,98,94,78,29.98,29.75,5,1,15,0.13
2014-1-15,55.5,38.4,26.7,41.5,33.3,26.0,98,84,52,30.02,29.88,7,1,13,0.02
2014-1-16,42.0,34.2,29.0,32.7,25.6,15.6,96,73,36,30.08,29.93,3,1,8,0.03
2014-1-17,50.0,36.3,24.9,31.9,24.8,20.0,85,65,40,30.02,29.88,5,1,12,0.00
2014-1-18,38.5,30.7,26.3,33.4,15.3,8.9,82,53,39,30.05,29.88,7,2,15,0.00
2014-1-19,47.6,35.4,24.3,28.5,22.2,15.2,77,59,44,30.01,29.84,5,2,20,0.00
2014-1-20,59.9,44.9,35.6,28.5,26.3,24.4,70,50,27,29.89,29.71,6,2,15,0.00
2014-1-21,37.1,28.8,21.1,30.3,25.4,17.0,94,87,69,29.93,29.73,4,1,12,0.00
2014-1-22,22.9,17.8,12.1,16.6,1.5,-6.3,83,51,27,30.16,29.93,8,3,15,0.00
2014-1-23,29.2,16.4,6.2,14.1,2.4,-4.8,87,57,30,30.56,30.16,7,2,16,0.00
2014-1-24,26.0,17.0,8.3,2.2,-2.9,-6.2,58,42,28,30.65,30.18,5,2,12,0.01
2014-1-25,34.7,26.7,18.7,26.8,9.5,0.6,91,48,37,30.18,29.57,7,4,18,0.00
2014-1-26,36.1,27.0,19.3,15.8,7.2,1.1,75,44,31,29.98,29.76,8,2,20,0.00
2014-1-27,57.0,37.4,22.6,35.9,19.3,-4.2,77,50,25,30.24,29.76,8,3,19,0.00
2014-1-28,24.4,18.1,12.9,8.8,-2.2,-8.9,83,42,28,30.48,30.24,7,3,16,0.00
2014-1-29,26.7,16.9,7.1,10.5,4.7,-2.7,89,63,29,30.43,30.30,4,1,12,0.01
2014-1-30,33.7,19.0,4.0,11.0,5.9,1.1,88,60,30,30.56,30.27,4,1,12,0.00
2014-1-31,54.9,35.9,20.1,17.2,12.0,6.2,72,42,15,30.28,30.16,5,1,9,0.00
2014-2-1,56.2,38.6,24.7,24.9,20.3,17.2,80,52,24,30.35,30.06,5,1,12,0.00
2014-2-2,65.6,48.5,32.1,49.2,34.9,23.6,74,60,41,30.07,29.97,4,1,13,0.00
2014-2-3,54.2,40.7,35.6,44.7,37.7,32.7,96,90,56,30.40,30.01,5,1,10,1.36
2014-2-4,37.5,34.5,32.1,32.7,29.9,27.4,96,83,73,30.54,30.20,3,1,6,0.02
2014-2-5,55.9,38.5,32.1,45.7,32.1,21.2,97,81,48,30.21,29.75,10,2,18,0.20
2014-2-6,40.5,34.5,29.7,23.3,20.8,18.6,76,57,44,30.40,30.16,7,2,17,0.00
2014-2-7,42.8,31.6,22.4,24.5,22.3,20.1,92,70,44,30.42,30.31,3,1,8,0.00
2014-2-8,35.9,31.3,29.5,25.4,21.1,17.0,79,66,57,30.40,30.23,3,1,6,0.00
2014-2-9,40.6,33.9,30.5,31.8,27.6,24.7,84,78,59,30.25,30.03,4,1,9,0.00
2014-2-10,40.6,30.1,24.7,28.1,22.1,16.3,94,73,57,30.38,30.09,3,1,8,0.00
2014-2-11,34.8,25.8,18.3,16.3,13.4,11.7,81,60,42,30.53,30.38,3,1,9,0.00
2014-2-12,24.9,21.1,15.4,22.4,13.5,10.2,93,73,55,30.58,30.15,4,1,8,0.00
2014-2-13,39.4,31.8,24.2,35.6,30.0,22.5,98,93,64,30.15,29.46,7,4,19,0.20
2014-2-14,54.8,42.5,31.7,28.9,24.8,19.0,79,52,26,29.76,29.55,5,2,16,0.40
2014-2-15,40.3,35.8,29.1,36.4,26.1,14.5,97,70,44,30.06,29.66,11,3,22,0.23
2014-2-16,43.4,35.2,27.6,27.8,19.5,14.3,71,53,37,30.25,30.00,5,2,20,0.00
2014-2-17,34.2,28.8,24.5,19.3,17.8,16.8,75,63,50,30.48,30.26,5,1,8,0.00
2014-2-18,61.0,50.9,37.8,27.3,22.6,16.9,63,35,18,30.13,30.08,4,1,18,0.02
2014-2-19,67.2,49.7,35.7,48.7,32.6,21.4,88,55,28,30.15,29.78,7,2,22,0.02
2014-2-20,52.6,43.5,31.4,32.7,28.3,23.3,84,57,35,30.32,29.99,4,0,9,0.00
2014-2-21,59.7,49.6,36.6,58.0,34.5,20.7,98,61,27,30.03,29.73,5,1,19,0.27
2014-2-22,64.7,48.2,30.0,28.1,24.1,18.1,82,43,18,30.19,30.03,5,1,16,0.00
2014-2-23,69.4,52.3,34.9,34.2,29.2,24.6,72,44,19,30.10,29.87,4,2,13,0.00
2014-2-24,51.4,43.3,29.3,35.8,17.5,3.1,73,40,14,30.19,29.95,10,3,27,0.00
2014-2-25,45.0,33.6,27.0,27.2,21.6,13.9,86,62,37,30.18,30.01,6,1,11,0.00
2014-2-26,39.1,31.8,29.5,28.5,26.0,15.4,86,79,38,30.07,29.92,5,1,8,0.00
2014-2-28,31.9,26.9,21.3,12.8,8.9,4.8,69,47,33,30.37,30.30,3,0,0,0.00
2014-3-1,50.2,32.5,15.2,26.5,16.9,10.2,84,56,30,30.36,30.15,4,1,0,0.00
2014-3-2,40.0,35.5,32.9,26.6,25.9,25.2,77,68,57,30.15,30.08,0,0,0,0.00
2014-3-12,53.1,43.1,37.1,35.9,25.9,20.6,52,50,47,29.53,29.23,12,9,18,0.05
2014-3-13,37.1,31.3,25.7,21.4,4.8,-4.6,59,34,18,30.17,29.53,11,5,19,0.00
2014-3-14,61.4,40.8,23.7,23.2,17.1,10.5,72,42,21,30.22,29.93,9,3,16,0.00
2014-3-15,67.5,60.6,46.4,28.9,25.2,23.0,46,27,20,30.00,29.84,8,3,15,0.00
2014-3-16,45.9,38.2,30.1,32.0,29.3,26.3,96,72,47,30.12,29.99,3,1,9,0.02
2014-3-17,29.7,27.7,25.5,28.7,25.9,23.7,96,93,87,30.07,29.94,0,0,0,0.00
2014-3-18,40.1,29.8,27.5,31.3,26.9,25.4,96,89,68,30.17,30.04,4,0,8,0.43
2014-3-24,45.7,40.6,34.8,19.5,13.3,8.4,48,33,24,30.12,30.06,5,2,11,0.00
2014-3-25,34.7,30.0,27.8,29.5,21.2,13.3,93,72,43,30.10,29.86,2,0,4,0.04
2014-3-26,38.5,33.2,27.0,19.9,14.7,11.2,72,48,33,30.30,30.17,7,2,11,0.14
2014-3-27,53.0,37.2,20.0,25.3,20.2,15.5,89,55,29,30.45,30.17,6,2,17,0.02
2014-3-28,66.9,55.1,43.8,54.1,44.6,23.6,91,69,40,30.17,29.97,8,3,15,0.03
2014-3-29,59.4,55.7,52.4,58.8,54.5,51.9,98,96,83,30.05,29.49,3,0,10,0.64
2014-3-30,52.8,46.8,39.1,52.3,37.7,26.1,98,72,40,29.84,29.47,11,6,18,0.37
2014-3-31,68.9,55.5,45.5,36.5,26.7,22.5,64,35,19,30.05,29.84,11,5,17,0.00
2014-4-1,72.8,53.8,35.4,43.2,36.4,31.7,89,56,30,30.15,29.90,5,1,10,0.00
2014-4-2,76.5,59.4,40.4,45.5,41.2,38.1,93,57,28,30.03,29.94,3,1,10,0.00
2014-4-3,69.7,60.0,49.9,52.9,49.6,43.9,97,71,48,30.10,29.85,5,1,10,0.03
2014-4-4,64.3,56.3,50.6,54.3,50.2,43.7,90,80,70,29.86,29.62,5,1,10,0.00
2014-4-5,63.2,56.4,47.9,52.9,34.0,27.1,90,44,29,30.10,29.66,8,3,11,0.00
2014-4-6,62.2,48.2,30.1,34.4,28.2,22.7,89,50,23,30.23,30.08,5,1,10,0.00
2014-4-7,51.1,44.0,39.3,41.8,37.1,31.5,96,79,47,30.11,29.78,4,0,10,0.77
2014-4-10,64.4,63.0,62.2,37.8,37.0,36.4,40,38,36,30.02,30.01,3,2,10,0.00
2014-4-11,76.4,61.6,54.2,45.2,39.6,36.4,55,45,30,30.05,29.95,6,2,10,0.00
2014-4-14,74.6,72.1,68.4,59.8,57.0,55.4,74,59,54,29.87,29.71,7,4,14,0.00
2014-4-15,68.4,57.1,38.3,64.1,53.2,24.1,98,88,56,30.01,29.50,9,4,14,1.58
2014-4-16,51.8,40.7,32.0,29.2,21.7,17.5,72,48,29,30.49,30.02,8,3,14,0.00
2014-4-17,48.8,34.3,28.2,31.0,27.1,24.8,91,76,46,30.60,30.49,3,0,10,0.00
2014-4-18,58.4,53.1,42.8,43.0,40.2,36.2,80,62,49,30.44,30.23,3,1,10,0.00
2014-4-19,66.5,54.8,42.3,46.4,42.5,39.8,92,66,42,30.25,30.16,4,1,10,0.00
2014-4-20,67.7,55.0,42.5,43.3,37.7,33.8,86,55,32,30.36,30.22,4,1,11,0.00
2014-4-21,73.8,55.4,34.8,44.2,32.7,21.5,93,51,15,30.24,29.84,4,1,10,0.00
2014-4-22,54.1,41.7,52.5,43.7,11.1,-99.9,70,51,56,29.84,29.78,0,-214,10,0.00
2014-4-23,56.1,54.1,52.6,33.5,32.2,31.4,48,43,40,29.98,29.92,6,4,10,0.00
2014-4-24,67.6,59.9,48.1,38.4,27.8,17.8,62,32,15,30.12,29.95,3,1,10,0.00
2014-4-25,58.8,52.8,42.6,57.1,46.0,35.4,98,79,48,29.99,29.68,3,0,10,0.57
2014-4-26,78.3,64.0,42.3,52.8,44.7,38.3,98,53,30,29.90,29.75,5,2,10,0.00
2014-4-27,75.6,61.3,50.3,50.4,44.6,37.4,83,56,37,30.06,29.85,3,1,10,0.00
2014-4-28,61.0,53.1,48.6,51.2,46.5,40.4,97,79,50,30.07,29.94,2,0,10,0.28
2014-4-29,51.2,49.1,47.7,50.7,48.5,46.9,98,98,97,30.15,29.99,2,1,10,1.06
2014-4-30,58.5,53.9,49.6,57.9,53.5,49.1,99,98,98,30.12,29.82,2,0,10,2.01
2014-5-1,78.4,66.7,56.6,63.4,54.8,39.8,100,71,33,29.83,29.66,5,1,10,0.01
2014-5-2,71.7,61.5,46.5,48.6,41.9,37.6,85,51,32,29.86,29.75,7,1,10,0.00
2014-5-3,74.6,61.3,48.5,47.8,43.6,39.0,88,56,28,29.88,29.72,5,1,10,0.00
2014-5-4,80.5,65.8,44.5,49.2,44.2,39.6,93,50,27,29.89,29.70,9,3,16,0.00
2014-5-5,66.8,55.6,46.8,53.1,45.2,36.0,96,70,39,30.02,29.86,3,0,10,0.05
2014-5-6,77.1,59.5,49.0,58.6,51.8,47.9,97,79,44,30.01,29.87,3,1,10,0.00
2014-5-7,77.1,65.7,56.6,58.4,54.3,49.8,95,70,39,30.16,30.02,4,1,5,0.00
2014-5-8,90.3,72.7,59.2,65.0,58.1,49.7,89,64,27,30.13,29.97,4,1,5,0.00
2014-5-9,86.5,72.0,57.3,67.6,61.3,55.6,97,73,35,30.08,29.91,4,1,8,0.01
2014-5-10,73.2,68.5,64.0,66.7,63.8,61.5,95,85,69,30.02,29.93,2,1,4,0.11
2014-5-11,83.0,69.3,55.2,62.4,58.6,54.6,99,73,41,30.14,29.98,3,1,4,0.01
2014-5-12,86.8,68.8,56.4,68.4,63.2,55.5,98,84,52,30.12,30.06,4,1,9,0.00
2014-5-13,91.6,75.5,61.5,70.4,66.3,60.9,99,77,45,30.14,30.02,3,1,5,0.02
2014-5-14,68.2,65.7,63.2,65.6,64.0,62.3,99,95,86,30.18,30.09,1,0,4,0.01
2014-5-15,78.7,67.7,63.9,67.7,65.4,63.6,99,93,69,30.10,29.82,6,2,8,1.97
2014-5-16,70.8,63.3,55.4,67.3,54.6,47.9,99,76,49,29.94,29.75,6,2,7,1.83
2014-5-17,67.9,57.9,46.6,49.3,41.9,36.6,89,59,33,30.16,29.95,4,1,8,0.00
2014-5-18,67.9,55.5,41.6,48.0,43.0,35.5,97,67,31,30.26,30.17,3,1,5,0.00
2014-5-19,72.9,57.4,40.1,50.1,42.3,36.8,97,64,28,30.34,30.18,3,1,3,0.00
2014-5-20,52.1,47.9,45.3,50.4,45.9,44.2,97,93,84,30.23,30.20,0,0,2,0.00
2014-5-22,83.6,74.7,67.8,59.9,57.4,55.3,74,57,38,29.88,29.80,3,1,4,0.00
2014-5-23,81.5,71.5,57.9,56.8,51.0,46.0,82,50,32,30.02,29.86,5,2,8,0.00
2014-5-24,77.2,65.1,51.5,57.9,50.9,45.3,88,62,44,30.13,30.02,5,1,7,0.00
2014-5-25,81.2,67.1,50.1,60.0,54.4,49.1,98,69,37,30.18,30.07,3,1,5,0.00
2014-5-26,87.1,71.9,54.4,64.5,59.4,53.5,97,69,40,30.15,29.96,3,1,4,0.00
2014-5-27,89.0,72.8,60.2,70.6,65.9,59.1,97,81,50,30.00,29.87,3,0,3,0.01
2014-5-28,89.5,73.5,65.4,71.4,67.3,64.0,98,84,47,29.99,29.87,5,1,6,0.76
2014-5-29,67.2,62.1,59.4,66.6,61.1,58.8,99,97,90,30.16,29.99,2,0,3,0.18
2014-5-30,69.5,62.8,58.3,62.9,60.6,57.5,99,93,79,30.14,30.08,3,0,3,0.02
2014-5-31,79.5,66.1,53.3,61.8,54.7,50.9,100,71,40,30.23,30.12,2,0,4,0.00
2014-6-1,74.8,64.0,51.3,57.2,53.9,50.4,98,72,49,30.36,30.23,4,1,7,0.00
2014-6-2,81.4,74.5,65.9,62.3,61.0,59.0,84,64,48,30.10,30.05,2,1,3,0.00
2014-6-3,84.9,72.8,60.9,69.4,65.4,59.2,95,79,59,30.06,29.86,3,0,3,0.00
2014-6-4,88.1,73.6,63.4,69.8,65.2,60.0,98,79,39,29.88,29.70,3,1,6,0.97
2014-6-5,80.4,71.6,62.3,70.4,62.6,56.7,100,76,47,29.86,29.60,6,2,11,0.01
2014-6-6,81.8,68.2,55.0,60.3,55.8,48.5,98,69,37,29.98,29.86,4,0,4,0.00
2014-6-7,83.2,69.3,54.5,64.3,59.0,53.5,98,73,45,30.06,29.93,3,0,4,0.00
2014-6-8,80.7,71.9,60.0,69.7,65.0,59.1,97,80,66,29.97,29.80,5,2,6,0.01
2014-6-9,84.4,75.9,67.9,73.3,68.7,66.4,96,79,62,29.88,29.81,2,1,3,0.00
2014-6-10,77.3,72.8,71.1,72.8,70.7,69.8,96,93,86,29.92,29.83,0,0,0,0.00
2014-6-11,85.5,74.0,67.6,74.8,70.1,66.3,99,89,64,29.98,29.84,8,1,8,0.54
2014-6-12,81.9,71.5,66.8,73.3,69.1,66.4,99,93,72,29.94,29.80,4,0,5,0.10
2014-6-13,84.6,72.4,63.9,73.3,68.4,63.3,99,88,62,29.87,29.73,8,1,8,0.82
2014-6-14,81.5,70.1,61.2,64.0,58.9,51.7,99,72,37,30.09,29.87,3,1,4,0.01
2014-6-15,82.4,67.7,53.7,67.6,59.6,52.9,98,78,55,30.20,30.07,3,1,8,0.00
2014-6-16,90.6,77.7,62.6,72.9,67.8,61.7,99,75,46,30.14,30.02,3,1,3,0.00
2014-6-17,92.6,80.5,66.7,75.7,70.6,65.8,98,74,49,30.11,29.97,3,1,5,0.00
2014-6-18,96.1,81.4,67.5,80.5,72.5,66.3,97,77,48,30.01,29.95,3,0,4,0.04
2014-6-19,90.6,77.6,69.3,74.6,71.5,68.2,98,83,55,30.01,29.91,3,0,3,0.12
2014-6-20,83.2,73.8,66.1,70.5,68.4,65.5,99,85,62,30.05,29.91,2,0,4,0.12
2014-6-21,77.8,71.1,67.5,71.2,68.8,66.0,98,93,78,29.92,29.82,2,0,2,0.07
2014-6-22,78.6,70.1,64.8,67.5,65.4,63.6,98,86,64,30.00,29.86,2,0,3,0.03
2014-6-23,81.7,72.7,62.7,67.1,64.2,61.6,99,77,53,30.11,30.00,4,1,6,0.00
2014-6-24,85.1,74.0,61.8,72.0,67.2,60.4,96,80,64,30.14,29.97,4,2,7,0.00
2014-6-25,85.6,76.4,67.5,77.7,71.6,66.3,97,86,65,29.99,29.81,3,1,4,0.15
2014-6-26,87.3,75.9,67.4,73.1,69.1,66.7,98,81,54,29.99,29.86,4,1,4,0.39
2014-6-27,88.3,76.7,65.8,72.9,68.9,65.5,100,79,50,30.14,29.99,3,0,4,0.01
2014-6-28,83.7,75.9,70.5,70.5,68.1,62.9,91,78,58,30.24,30.14,3,1,5,0.00
2014-6-29,82.6,73.1,62.9,66.1,61.8,55.9,94,70,41,30.25,30.09,3,1,7,0.00
2014-6-30,86.5,75.2,62.8,73.2,67.9,61.9,97,80,59,30.10,29.92,3,1,3,0.00
2014-7-1,91.2,80.9,69.6,75.7,72.7,68.1,97,78,58,29.95,29.81,3,1,10,0.00
2014-7-2,94.5,83.1,73.3,77.8,73.9,69.4,96,76,52,29.92,29.81,6,1,6,0.00
2014-7-3,86.3,75.0,70.0,76.6,71.7,68.5,98,90,71,29.96,29.89,8,1,10,1.22
2014-7-4,79.6,72.8,62.5,70.6,60.3,51.8,98,68,40,30.19,29.94,7,3,17,0.01
2014-7-5,81.5,67.1,52.4,58.6,54.0,49.2,96,67,37,30.30,30.17,2,1,7,0.00
2014-7-6,87.1,71.2,53.8,65.7,59.9,53.0,98,71,46,30.17,29.94,3,1,7,0.00
2014-7-7,89.8,77.9,64.3,70.7,66.3,62.2,94,70,50,29.95,29.81,4,1,6,0.00
2014-7-8,91.4,78.9,69.0,72.7,68.7,65.4,98,73,47,29.88,29.73,8,2,10,0.51
2014-7-9,84.8,75.6,67.9,74.8,71.0,67.6,99,87,64,29.96,29.82,3,1,4,0.02
2014-7-10,82.6,74.4,67.9,71.9,69.7,67.3,99,86,62,30.10,29.95,2,0,3,0.00
2014-7-11,85.6,74.9,63.7,70.3,67.9,63.1,99,81,56,30.19,30.10,2,0,3,0.00
2014-7-12,87.7,77.4,67.5,73.2,70.1,66.6,98,80,58,30.19,30.07,4,1,5,0.00
2014-7-13,90.4,78.3,70.1,74.4,70.7,68.0,94,79,53,30.09,29.92,4,1,7,0.00
2014-7-14,91.9,79.4,72.4,77.1,73.4,70.9,98,83,56,29.91,29.78,4,1,7,0.40
2014-7-15,86.4,77.8,70.7,75.9,71.5,67.6,100,83,61,29.83,29.70,3,1,4,0.09
2014-7-16,80.8,73.9,68.1,69.9,62.1,55.7,94,68,48,29.93,29.77,3,1,7,0.00
2014-7-17,82.3,71.9,60.8,62.8,59.9,54.4,95,68,41,30.11,29.93,3,0,3,0.00
2014-7-18,82.0,71.3,59.2,66.8,62.8,58.3,98,77,51,30.22,30.12,2,0,3,0.00
2014-7-19,79.5,71.2,65.4,66.4,64.6,61.3,98,81,57,30.19,30.10,2,0,3,0.04
2014-7-20,78.0,70.4,61.3,68.7,64.6,59.3,96,83,66,30.13,30.05,2,0,3,0.01
2014-7-21,81.2,74.0,69.1,74.1,70.7,67.5,98,90,74,30.16,30.08,3,0,3,0.03
2014-7-22,85.2,77.0,71.6,74.2,72.3,71.0,98,86,67,30.17,30.04,3,0,5,0.00
2014-7-23,92.6,78.7,69.2,76.6,72.3,68.6,98,83,53,30.06,29.80,5,1,5,0.31
2014-7-24,77.3,70.8,65.9,72.6,69.5,65.4,99,96,83,29.95,29.83,2,0,3,0.13
2014-7-25,82.4,71.0,61.9,66.6,63.9,61.5,100,81,54,30.08,29.95,3,1,6,0.00
2014-7-26,88.0,75.1,65.3,71.2,67.8,64.2,98,80,53,29.99,29.86,2,0,4,0.00
2014-7-27,82.7,74.6,68.8,73.7,71.0,68.2,99,89,73,29.90,29.66,3,1,5,0.25
2014-7-28,81.5,76.1,65.3,73.6,63.5,58.3,95,66,47,29.84,29.59,5,2,8,0.00
2014-7-29,76.6,67.3,56.9,60.2,57.0,53.9,91,71,47,30.02,29.84,3,1,4,0.00
2014-7-30,79.1,67.0,54.7,61.4,57.5,53.9,98,74,48,30.08,30.00,2,0,5,0.00
2014-7-31,85.0,71.2,56.8,66.7,61.4,56.0,99,75,44,30.12,30.05,3,1,5,0.00
2014-8-1,75.3,70.3,64.2,68.7,66.9,62.4,97,89,76,30.18,30.10,1,0,3,0.07
2014-8-2,74.9,68.7,62.1,68.0,64.9,61.2,98,88,74,30.15,30.05,2,0,5,0.00
2014-8-3,83.5,74.3,65.4,69.4,67.0,64.8,99,80,58,30.07,29.98,3,1,4,0.00
2014-8-4,87.4,74.8,62.2,68.7,65.6,61.3,98,75,51,30.10,30.02,3,0,7,0.00
2014-8-5,88.3,74.6,62.2,70.3,65.8,61.1,99,77,43,30.06,29.93,2,0,2,0.00
2014-8-6,83.2,72.7,63.4,70.1,66.7,62.6,98,83,58,29.95,29.89,3,0,4,0.01
2014-8-7,84.3,72.9,62.4,68.6,64.8,60.3,99,78,46,30.05,29.92,2,0,3,0.00
2014-8-8,80.9,70.7,60.4,67.9,63.1,59.5,97,79,51,30.12,30.04,2,0,4,0.00
2014-8-9,77.3,70.9,63.6,67.5,65.7,62.7,99,84,69,30.12,30.06,3,1,3,0.00
2014-8-10,82.2,70.8,60.7,68.7,64.8,60.1,98,83,56,30.14,30.06,3,0,5,0.00
2014-8-11,73.8,68.1,64.7,67.3,64.9,60.8,98,90,72,30.11,29.99,3,0,3,0.14
2014-8-12,78.5,71.3,66.4,73.5,69.7,65.8,99,95,83,29.99,29.74,2,1,7,0.55
2014-8-13,81.2,71.7,61.3,68.7,63.0,55.5,99,77,52,29.94,29.75,6,1,7,0.01
2014-8-14,82.3,67.9,53.6,63.7,58.1,52.8,98,74,45,29.98,29.86,3,1,6,0.00
2014-8-15,81.4,67.9,54.4,65.2,59.1,53.6,97,76,49,30.03,29.91,3,1,4,0.00
2014-8-16,83.8,69.4,54.4,63.1,58.6,53.6,98,72,43,30.04,29.92,3,1,6,0.00
2014-8-17,83.8,72.2,63.9,72.3,67.3,61.4,96,85,67,29.95,29.89,2,0,2,0.00
2014-8-18,78.9,72.7,66.8,72.5,69.1,65.9,98,89,77,29.91,29.78,0,0,0,0.00
2014-8-19,83.6,74.8,69.2,72.8,70.8,68.3,98,88,68,29.90,29.77,1,0,3,0.00
2014-8-20,86.0,77.0,68.2,74.7,71.1,65.6,98,83,64,30.01,29.87,9,2,12,1.25
2014-8-21,86.1,73.6,64.8,76.0,70.2,64.5,100,90,61,30.05,29.96,2,0,4,0.01
2014-8-22,80.8,73.9,68.0,73.9,71.2,67.2,98,92,77,29.99,29.92,2,0,4,0.01
2014-8-23,75.2,71.0,67.2,73.4,70.3,66.5,99,98,90,30.05,29.93,3,0,5,2.06
2014-8-24,76.5,69.2,63.7,67.7,65.6,62.5,99,89,70,30.13,30.05,3,0,4,0.08
2014-8-25,80.0,67.3,56.6,64.3,60.7,56.0,99,82,51,30.18,30.11,3,0,5,0.01
2014-8-26,83.7,68.4,54.6,68.0,61.3,54.0,99,81,49,30.19,30.07,2,0,4,0.00
2014-8-27,89.0,72.2,56.6,71.6,64.7,56.0,99,80,50,30.09,29.91,2,0,3,0.00
2014-8-28,89.0,77.0,67.6,73.7,67.7,60.3,99,76,48,30.06,29.90,3,0,5,0.00
2014-8-29,81.7,69.8,58.4,66.5,60.8,56.0,96,75,51,30.19,30.06,2,0,4,0.00
2014-8-30,83.2,74.2,67.9,75.2,69.6,63.7,97,86,76,30.21,30.07,4,1,5,0.00
2014-8-31,90.6,78.4,70.7,75.7,73.1,70.2,99,85,59,30.11,29.97,5,1,8,0.00
2014-9-1,91.8,79.9,72.3,76.9,73.2,71.6,99,82,54,30.02,29.92,3,1,5,0.29
2014-9-2,94.0,80.9,68.5,76.4,72.2,67.7,99,77,48,29.98,29.84,3,1,6,0.00
2014-9-3,87.0,76.8,69.5,74.6,71.6,68.8,99,85,58,30.11,29.87,3,0,4,0.05
2014-9-4,86.7,77.7,71.0,77.0,73.3,70.7,99,87,69,30.15,30.05,3,0,5,0.10
2014-9-5,90.3,78.1,68.6,75.9,72.1,68.0,99,84,55,30.14,30.01,4,1,9,0.00
2014-9-6,91.4,79.1,70.4,75.2,72.2,69.8,99,82,53,30.02,29.84,4,1,5,0.00
2014-9-7,78.4,71.6,64.1,69.3,62.6,58.1,92,74,56,30.16,29.92,2,0,6,0.00
2014-9-8,71.6,65.6,61.4,66.9,61.9,58.9,96,88,78,30.21,30.14,2,0,4,0.03
2014-9-9,73.4,68.3,64.3,68.1,64.5,60.0,97,88,82,30.18,30.08,3,0,4,0.00
2014-9-10,80.2,71.7,66.1,70.1,67.4,65.0,98,87,67,30.12,29.97,3,1,6,0.00
2014-9-11,89.1,76.4,67.4,75.8,70.7,66.4,98,84,56,29.98,29.85,4,1,6,0.00
2014-9-12,77.1,70.0,64.7,71.4,62.7,59.1,95,78,62,30.13,29.95,3,0,8,0.00
2014-9-13,73.4,65.5,59.1,67.9,61.2,55.9,94,86,69,30.22,30.07,4,0,6,0.02
2014-9-14,67.8,59.7,49.8,58.2,53.6,48.7,98,82,60,30.33,30.20,2,0,4,0.00
2014-9-15,75.3,63.3,52.7,63.4,58.1,51.6,98,84,58,30.25,30.02,2,0,4,0.00
2014-9-16,78.1,69.0,61.4,66.2,60.8,56.0,99,77,55,30.03,29.95,5,1,8,0.00
2014-9-17,75.6,64.0,54.5,60.3,56.2,52.8,96,78,50,30.06,29.92,2,0,4,0.00
2014-9-18,76.2,63.4,54.6,66.9,60.2,53.8,98,90,64,30.09,29.95,3,0,3,0.04
2014-9-19,70.6,63.9,59.9,62.7,60.2,57.2,98,88,72,30.26,30.08,2,0,4,0.01
2014-9-20,81.4,67.8,57.6,63.9,60.8,56.8,99,81,48,30.26,30.01,3,0,5,0.00
2014-9-21,87.3,70.7,53.5,68.8,61.6,52.7,99,76,50,30.05,29.64,4,1,9,0.00
2014-9-22,73.7,65.2,54.3,55.6,51.7,47.4,91,63,41,30.20,29.78,6,2,9,0.00
2014-9-23,68.0,56.5,46.6,52.2,48.4,44.6,96,76,44,30.38,30.20,3,0,6,0.00
2014-9-24,64.5,57.8,48.6,60.1,54.9,47.5,98,90,75,30.46,30.33,3,0,7,0.54
2014-9-25,72.0,64.6,60.2,65.6,61.8,59.5,98,91,78,30.34,30.20,3,1,7,0.05
2014-9-26,78.4,66.5,56.4,63.4,60.2,55.3,98,82,49,30.25,30.15,3,0,5,0.01
2014-9-27,79.4,62.2,49.0,61.7,55.6,48.3,99,82,46,30.26,30.16,3,0,5,0.00
2014-9-28,78.4,64.0,49.2,64.5,58.2,48.6,99,84,54,30.21,30.05,3,0,5,0.01
2014-9-29,70.6,63.7,58.9,67.8,62.6,58.3,99,96,88,30.05,29.92,2,0,2,0.04
2014-9-30,70.8,64.9,61.9,66.1,63.4,61.3,99,95,83,29.93,29.85,2,0,4,0.00
2014-10-1,74.2,66.6,61.6,66.8,63.6,61.0,99,91,73,30.06,29.92,2,0,4,0.02
2014-10-2,73.5,64.8,61.9,66.5,63.3,61.5,99,95,75,30.12,30.05,2,0,4,0.01
2014-10-3,72.1,68.7,65.6,68.8,67.1,65.0,98,95,85,29.82,29.68,3,0,3,0.54
2014-10-4,65.8,59.1,40.4,65.2,48.8,33.1,99,73,34,29.85,29.60,6,1,9,0.01
2014-10-5,63.6,49.0,36.1,44.2,39.2,35.1,98,73,38,29.98,29.83,5,1,8,0.00
2014-10-6,72.1,56.6,41.6,54.2,47.6,40.5,98,75,49,30.03,29.91,7,2,11,0.00
2014-10-7,70.6,60.1,55.1,61.1,56.7,53.8,99,89,67,30.06,29.90,5,1,9,0.90
2014-10-8,77.5,63.8,52.8,62.8,53.5,45.4,100,74,33,30.03,29.88,4,1,6,0.06
2014-10-9,75.4,60.8,44.6,58.0,51.6,43.8,99,75,43,30.16,30.02,3,1,6,0.00
2014-10-10,60.7,58.3,55.5,58.1,55.8,52.9,98,91,78,30.12,30.03,2,0,3,0.10
2014-10-11,58.4,55.8,53.7,56.3,54.6,53.1,98,96,91,30.17,29.96,2,0,4,0.15
2014-10-12,56.3,54.2,52.1,54.2,52.6,50.8,98,94,83,30.29,30.17,2,0,5,0.08
2014-10-13,62.8,57.8,53.9,61.6,57.2,53.3,99,98,95,30.29,30.18,1,0,2,0.08
2014-10-14,75.5,68.3,58.2,70.8,66.8,57.8,100,95,82,30.18,29.89,6,2,15,0.37
2014-10-15,73.0,63.4,54.2,70.2,62.2,53.6,99,96,90,29.89,29.75,6,1,10,2.08
2014-10-16,68.3,58.2,52.1,59.2,55.8,51.8,100,92,67,29.78,29.71,3,0,5,0.01
2014-10-17,71.8,59.9,49.4,57.1,53.7,48.9,99,82,54,29.86,29.69,6,1,8,0.01
2014-10-18,67.8,59.1,50.7,56.3,48.2,39.8,99,70,46,29.92,29.65,6,2,11,0.00
2014-10-19,63.1,52.0,41.7,44.0,39.5,32.0,93,65,32,30.12,29.91,5,1,8,0.00
2014-10-20,66.9,51.5,35.2,54.0,44.9,34.2,98,80,56,30.14,29.92,5,1,8,0.01
2014-10-21,70.5,56.5,46.9,54.7,50.6,46.1,99,83,43,29.92,29.77,6,1,9,0.03
2014-10-22,59.8,55.2,51.0,49.6,46.7,43.2,90,73,63,30.01,29.89,8,4,18,0.04
2014-10-23,65.8,58.0,51.7,47.4,44.6,41.8,71,61,50,29.99,29.89,9,4,15,0.00
2014-10-24,69.7,56.7,44.3,48.0,44.1,39.9,94,65,34,30.02,29.91,5,1,7,0.00
2014-10-25,73.5,54.9,35.4,50.6,42.8,34.6,98,69,30,30.00,29.74,4,1,12,0.00
2014-10-26,72.8,59.8,42.8,51.6,35.4,16.6,85,47,13,29.94,29.72,8,2,11,0.00
2014-10-27,74.3,53.3,34.8,47.0,38.0,31.9,94,63,25,30.10,29.94,5,1,10,0.00
2014-10-28,84.3,65.0,48.1,57.9,52.3,45.1,93,67,36,30.07,29.92,5,1,9,0.00
2014-10-29,67.0,60.6,51.8,59.0,56.1,51.0,97,86,71,29.99,29.89,4,0,7,0.00
2014-10-30,56.9,48.9,39.0,51.1,41.7,36.3,99,79,48,30.09,29.98,6,1,9,0.01
2014-10-31,56.4,47.0,34.7,42.5,38.9,33.4,97,75,51,30.06,29.82,3,0,4,0.00
2014-11-1,49.7,46.6,41.8,42.7,39.7,32.9,91,77,60,29.96,29.77,9,3,17,0.01
2014-11-2,50.3,44.5,40.7,32.3,26.4,21.1,61,50,33,30.27,29.96,10,6,17,0.00
2014-11-3,67.5,51.9,35.1,33.5,25.8,12.3,79,40,13,30.36,30.22,4,1,8,0.00
2014-11-4,73.0,59.3,42.4,41.0,36.0,29.8,80,45,21,30.25,30.09,4,1,7,0.00
2014-11-5,69.7,59.8,51.5,50.2,43.3,36.3,76,56,36,30.20,30.09,4,1,8,0.00
2014-11-6,68.8,56.7,47.6,57.2,49.0,38.0,98,77,48,30.09,29.64,10,2,19,0.19
2014-11-7,57.1,49.0,34.7,40.5,33.4,25.8,80,56,35,30.10,29.75,9,3,16,0.00
2014-11-8,52.9,40.3,27.0,38.0,30.8,25.2,94,71,44,30.11,29.93,5,1,9,0.00
2014-11-9,61.5,47.1,35.4,41.7,37.7,33.8,95,73,42,30.05,29.91,3,0,6,0.00
2014-11-10,65.0,46.5,31.2,45.4,38.7,30.2,97,77,46,30.16,30.05,4,1,7,0.00
2014-11-11,71.1,50.8,33.2,53.3,43.8,32.2,97,80,46,30.11,29.91,5,1,7,0.00
2014-11-12,68.8,52.5,40.8,54.4,41.1,33.6,98,70,31,30.12,29.87,7,1,12,0.00
2014-11-13,44.9,41.7,38.0,36.3,33.8,31.1,92,74,64,30.16,30.03,3,0,3,0.01
2014-11-14,40.2,34.6,24.2,33.6,18.6,14.8,83,53,37,30.34,30.09,6,3,13,0.00
2014-11-15,44.6,31.2,18.7,24.6,18.7,14.7,91,64,31,30.45,30.34,4,0,6,0.00
2014-11-16,46.0,38.7,29.1,37.4,27.3,20.8,94,65,42,30.37,30.05,4,1,6,0.02
2014-11-17,50.5,42.6,38.3,46.7,38.3,23.6,98,86,53,30.05,29.56,6,2,12,0.63
2014-11-18,38.2,29.0,22.1,23.9,9.3,3.6,57,44,31,30.30,29.82,8,3,17,0.00
2014-11-19,37.8,28.0,15.3,16.9,12.4,7.4,84,54,35,30.40,30.09,5,2,10,0.00
2014-11-20,54.8,42.1,31.1,28.3,20.0,14.2,61,42,28,30.13,29.91,6,2,11,0.00
2014-11-21,39.9,33.0,21.9,16.7,12.2,7.1,74,44,26,30.59,30.13,6,2,9,0.00
2014-11-22,48.8,31.1,17.3,22.6,18.3,13.7,87,62,32,30.59,30.27,2,0,3,0.00
2014-11-23,56.5,44.8,33.1,47.9,33.4,21.3,98,66,41,30.27,29.71,4,1,5,0.88
2014-11-24,71.5,61.2,48.7,58.2,54.8,48.2,99,81,58,29.80,29.62,8,2,16,0.11
2014-11-25,61.4,53.3,45.5,55.4,41.0,31.1,96,65,35,30.13,29.79,4,0,5,0.00
2014-11-26,46.3,39.0,33.3,43.3,37.5,32.2,98,95,72,30.13,29.95,3,0,7,1.28
2014-11-27,44.8,37.2,29.4,40.3,31.8,24.5,99,83,53,30.24,30.00,6,1,15,0.04
2014-11-28,39.9,32.0,24.8,26.0,22.5,17.2,93,70,42,30.37,30.24,6,1,9,0.00
2014-11-29,42.0,34.9,26.3,31.5,26.6,23.5,91,73,53,30.34,30.17,3,1,7,0.00
2014-11-30,66.9,51.1,34.5,47.1,39.3,29.7,85,65,48,30.19,30.07,6,2,11,0.00
2014-12-1,73.5,57.9,44.5,55.1,48.2,36.6,94,72,52,30.44,30.15,5,1,10,0.00
2014-12-2,45.4,37.4,36.2,38.1,35.6,34.2,97,93,72,30.56,30.31,2,1,4,0.50
2014-12-3,57.0,44.7,36.6,48.8,40.2,28.8,98,86,50,30.32,30.08,5,2,9,0.06
2014-12-4,45.9,39.3,31.5,37.8,31.8,26.6,96,76,50,30.49,30.30,3,0,6,0.10
2014-12-5,41.0,39.5,38.0,40.2,38.0,37.0,97,94,89,30.54,30.34,1,0,2,0.04
2014-12-6,49.8,45.6,41.1,49.0,44.3,40.3,98,95,89,30.34,30.02,5,1,9,0.48
2014-12-7,47.6,40.5,31.0,41.0,27.8,18.9,91,63,37,30.55,30.25,6,2,12,0.00
2014-12-8,39.4,34.0,26.3,32.4,25.1,18.2,96,71,54,30.58,30.22,3,1,5,0.38
2014-12-9,49.0,41.5,33.5,41.7,36.7,32.4,98,84,65,30.23,29.90,7,2,10,0.15
2014-12-10,48.3,44.0,36.7,35.1,30.8,23.6,71,60,50,29.93,29.87,10,4,13,0.00
2014-12-11,45.9,38.6,29.2,23.8,15.9,6.2,73,43,20,30.06,29.88,10,3,12,0.00
2014-12-12,54.5,43.2,30.8,27.0,21.8,11.5,81,45,27,30.14,30.04,4,1,8,0.00
2014-12-13,55.9,39.4,27.7,33.6,28.7,24.8,90,69,38,30.14,29.98,2,0,3,0.00
2014-12-14,60.6,45.4,29.4,38.5,33.4,26.5,90,65,43,30.05,29.95,4,1,7,0.00
2014-12-15,57.2,42.3,30.1,41.2,35.6,28.8,96,79,53,30.14,30.04,4,1,7,0.00
2014-12-16,45.2,39.4,32.5,44.4,38.4,31.1,98,96,93,30.05,29.86,2,0,5,0.32
2014-12-17,56.9,44.1,34.2,44.4,34.2,26.4,99,71,41,30.08,29.93,4,1,5,0.00
2014-12-18,43.8,35.6,25.7,28.9,25.5,23.4,92,68,47,30.19,30.08,4,1,6,0.00
2014-12-19,44.5,35.0,26.3,28.5,26.1,23.6,92,71,51,30.26,30.12,4,1,7,0.00
2014-12-20,38.0,31.1,23.5,28.6,25.7,21.8,94,81,65,30.34,30.25,3,0,6,0.00
2014-12-21,45.7,35.7,30.2,31.6,28.7,26.7,89,76,56,30.37,30.26,3,0,4,0.00
2014-12-22,35.3,33.6,32.0,34.5,31.2,27.9,97,91,80,30.32,30.09,3,0,3,0.22
2014-12-23,44.3,40.5,35.3,43.2,39.9,34.5,99,97,95,30.11,30.03,1,0,3,0.40
2014-12-24,54.7,46.8,43.3,54.4,46.5,42.8,99,99,98,30.03,29.57,4,1,7,0.42
2014-12-25,56.3,49.4,34.5,54.9,37.1,30.5,99,64,43,30.24,29.58,6,2,14,0.00
2014-12-26,53.8,37.8,26.2,36.1,31.3,25.0,96,80,46,30.36,30.23,3,0,6,0.00
2014-12-27,66.8,44.4,30.3,38.7,33.8,24.0,96,72,20,30.31,30.07,3,0,5,0.00
2014-12-28,56.6,49.9,43.6,49.8,43.3,37.8,96,79,59,30.09,29.92,4,1,6,0.05
2014-12-29,47.2,40.0,37.3,46.0,37.1,32.8,96,89,74,30.27,30.08,4,0,6,0.11
2014-12-30,43.1,35.4,23.9,36.2,24.7,18.7,95,67,41,30.45,30.26,3,1,5,0.00
2014-12-31,40.8,29.0,20.3,25.8,17.2,10.3,94,66,29,30.47,30.28,4,1,6,0.00
2015-1-1,48.0,36.2,24.4,27.2,21.3,16.3,73,56,34,30.28,30.10,6,2,14,0.00
2015-1-2,49.1,43.0,36.4,33.7,27.4,21.6,73,54,43,30.42,30.11,3,1,8,0.00